Regional Weather Roundup
Issued by NWS

Home | Current Version | Previous Version | Text Only | Print | Product List | Glossary Off
Versions: 1 2 3 4 5 6 7 8 9 10 11 12 13 14 15 16 17 18 19 20 21 22 23 24 25 26 27 28 29 30 31 32 33 34 35 36 37 38 39 40 41 42 43 44 45 46 47 48 49 50

000
ASUS43 KLOT 091012
RWRIL

ILLINOIS REGIONAL WEATHER ROUNDUP
NATIONAL WEATHER SERVICE CHICAGO/ROMEOVILLE IL
400 AM CST FRI DEC 09 2016

NOTE: "FAIR" INDICATES FEW OR NO CLOUDS BELOW 12,000 FEET WITH NO
SIGNIFICANT WEATHER AND/OR OBSTRUCTIONS TO VISIBILITY.

* THESE STATIONS ARE NOT UNDER NWS QUALITY CONTROL. THEY ALSO MAY NOT
  REPORT WEATHER SUCH AS PRECIPITATION OR FOG.

ILZ001-002-007-009-015-016-024-091100-
NORTHWEST ILLINOIS

CITY           SKY/WX    TMP DP  RH WIND       PRES   REMARKS
MOLINE         CLOUDY    20  11  68 NW12      30.55S WCI   8
STERLING*      FLURRIES  20  15  81 W10       30.51S WCI   9
SAVANNA*       CLOUDY    20  13  76 W8        30.52S WCI  10
$$

ILZ003-004-008-010-011-017-018-091100-
NORTH CENTRAL ILLINOIS

CITY           SKY/WX    TMP DP  RH WIND       PRES   REMARKS
ROCKFORD       FLURRIES  22  16  78 W10       30.49R WCI  11
FREEPORT*      CLOUDY    20  15  80 W12       30.50S WCI   8
ROCHELLE*      CLOUDY    21  17  83 W10       30.49S WCI  10
DE KALB*       CLOUDY    21  17  84 W12       30.46S WCI   9
$$

ILZ005-006-012>014-019>023-091100-
NORTHEAST ILLINOIS

CITY           SKY/WX    TMP DP  RH WIND       PRES   REMARKS
CHICAGO-OHARE  CLOUDY    21  16  81 W8        30.45R WCI  11
CHICAGO-MIDWAY MOCLDY    21  14  74 W9        30.46R WCI  11
AURORA         CLOUDY    22  16  78 W15       30.47S WCI   9
LANSING*       CLOUDY    21  18  86 W7        30.47R WCI  13
JOLIET*        CLOUDY    24  18  80 W7        30.49S WCI  15
WAUKEGAN       MOCLDY    22  17  81 NW7       30.42R WCI  13
DUPAGE AIRPORT CLOUDY    21  15  78 W10       30.46R WCI  10
KANKAKEE*      FLURRIES  23  18  81 W9        30.49S WCI  13
WHEELING       MOCLDY    22  16  78 W8        30.46R WCI  12
MORRIS*        CLOUDY    22  17  81 W14       30.48S WCI  10
ROMEOVILLE*    CLOUDY    22  19  91 W10       30.47S WCI  11
NORTHERLY ISL    N/A     22  18  85 W10         N/A  WCI  11
$$

LMZ740>746-091100-
SOUTHERN LAKE MICHIGAN

STATION/POSITION SKY/WX   TEMP    WIND        PRES    VSBY  WAVE
                          AIR SEA DIR/SP/G                  HT/PER
                          (F)     (DEG/KT/KT) (MB)    (MI)  (FT/S)
HARRISON CRIB              24     280/ 17/ 19   N/A
BURNHAM HARBOR             22     250/ 11/ 14   N/A
CALUMET HARBOR             21     260/  7/ 11 1030.5R
BURNS HARBOR               26     270/ 17/ 22 1031.2
$$

ILZ025>027-034>036-040-047-049-050-058-095>099-091100-
WEST-CENTRAL ILLINOIS

CITY           SKY/WX    TMP DP  RH WIND       PRES   REMARKS
QUINCY         MOCLDY    15  11  83 W6        30.58S WCI   6
GALESBURG*     FLURRIES  20  16  82 W9        30.55R WCI  10
MACOMB*        FLURRIES  22  15  75 NW10      30.58S WCI  11
JACKSONVILLE*  CLOUDY    19  13  78 W6        30.58S WCI  11
PITTSFIELD*    PTCLDY    16  11  82 W3        30.59S
$$

ILZ028>032-037-038-041>044-048-051>054-059>061-091100-
CENTRAL ILLINOIS

CITY           SKY/WX    TMP DP  RH WIND       PRES   REMARKS
PONTIAC        CLOUDY    23  17  78 W12       30.52R WCI  12
BLOOMINGTON    CLOUDY    21  14  74 W10       30.52R WCI  10
DECATUR        LGT SNOW  22  15  75 NW7       30.55R WCI  13
PEORIA         CLOUDY    22  11  62 W9        30.54S WCI  12
LACON*         CLOUDY    22  13  71 NW7       30.53R WCI  13
LINCOLN*       CLOUDY    24  16  73 NW5       30.55S WCI  18
SPRINGFIELD    CLOUDY    23  15  71 W8        30.57R WCI  14
TAYLORVILLE    FLURRIES  22  14  73 CALM      30.57S
$$

ILZ033-039-045-046-055>057-062-063-091100-
EAST-CENTRAL ILLINOIS

CITY           SKY/WX    TMP DP  RH WIND       PRES   REMARKS
CHAMPAIGN      FLURRIES  22  13  68 W12       30.53R WCI  10
RANTOUL*       CLOUDY    24  17  74 W9        30.51R WCI  14
MATTOON        CLOUDY    22  12  65 NW12      30.53F WCI  10
PARIS*         FLURRIES  21  17  84 W9        30.54S WCI  11
$$

ILZ079-100>102-091100-
SOUTHWEST ILLINOIS

CITY           SKY/WX    TMP DP  RH WIND       PRES   REMARKS
ALTON          CLEAR     19  13  77 W7        30.60S WCI  10
BELLEVILLE     CLEAR     17  12  80 W6        30.59S WCI   9
CAHOKIA*       CLEAR     20  11  68 W5        30.61S WCI  13
SPARTA*        PTCLDY    19  13  77 NW3       30.61S
$$

ILZ064>066-069>071-074>076-080>082-084>086-088>090-092>094-091100-
SOUTH-CENTRAL ILLINOIS

CITY           SKY/WX    TMP DP  RH WIND       PRES   REMARKS
CARBONDALE     CLEAR     18  13  80 W3        30.62R
CAIRO*         CLEAR     20  14  75 NW5       30.62S WCI  14
EFFINGHAM*     CLOUDY    24  16  70 NW10      30.58S WCI  13
MARION         CLOUDY    23  16  74 NW3       30.61S
CENTRALIA*     PTCLDY    21  15  78 NW5       30.58S WCI  14
SALEM*         CLEAR     22  13  70 W5        30.58S WCI  15
METROPOLIS*    CLEAR     21  14  75 CALM      30.62R
$$

ILZ067-068-072-073-078-083-087-091-091100-
SOUTHEAST ILLINOIS

CITY           SKY/WX    TMP DP  RH WIND       PRES   REMARKS
LAWRENCEVILLE  CLOUDY    22  12  65 NW9       30.58S WCI  12
FLORA*         CLOUDY    25  15  66 NW8       30.59S WCI  16
FAIRFIELD*     CLOUDY    23  14  68 NW5       30.58S WCI  17
HARRISBURG*    PTCLDY    22  14  71 NW3       30.61R
ROBINSON*      FLURRIES  21  14  73 NW8       30.58S WCI  12
CARMI*         PTCLDY    21  15  76 NW9       30.59S WCI  11
$$

ABBREVIATIONS USED IN REMARKS
   TC - TEMPERATURE IN CELSIUS
  WCI - WIND CHILL INDEX
   HX - HEAT INDEX
  VSB - VISIBILITY
$$





USA.gov is the U.S. government's official web portal to all federal, state and local government web resources and services.